Location: Marcé
(47.5801°N, 0.3280°W)
Time: 05:50:36
(UTC+02:00)

X-37B - Visible Passes

Search period start: 17 October 2021 00:00
Search period end: 27 October 2021 00:00
Orbit: 385 x 389 km, 45.0° (Epoch: 13 October)

Date Brightness Start Highest point End Pass type
(mag) Time Alt. Az. Time Alt. Az. Time Alt. Az.
17 Oct 1.6 20:07:37 10° SW 20:10:32 33° SSE 20:12:23 18° ESE visible
17 Oct 3.4 21:43:48 10° WSW 21:44:40 17° WSW 21:44:40 17° WSW visible
18 Oct 0.9 20:45:30 10° WSW 20:48:36 51° S 20:48:53 49° SSE visible
19 Oct 1.3 19:47:16 10° WSW 19:50:18 43° SSE 19:53:04 12° E visible
19 Oct 2.6 21:23:39 10° W 21:25:21 27° WSW 21:25:21 27° WSW visible
20 Oct 1.0 20:25:19 10° WSW 20:28:26 54° S 20:29:33 33° ESE visible
21 Oct 1.1 19:27:01 10° WSW 19:30:07 51° S 19:33:14 10° E visible
21 Oct 1.8 21:03:31 10° W 21:06:02 38° SW 21:06:02 38° SW visible
22 Oct 1.2 20:05:10 10° W 20:08:16 50° S 20:10:16 19° ESE visible
22 Oct 3.7 21:41:58 10° WSW 21:42:33 13° WSW 21:42:33 13° WSW visible
23 Oct 1.9 20:43:27 10° W 20:46:19 31° SSW 20:46:50 29° S visible
24 Oct 1.6 19:45:03 10° W 19:48:04 41° SSW 19:51:06 10° ESE visible
24 Oct 3.4 21:22:17 10° WSW 21:23:29 14° SW 21:23:29 14° SW visible
25 Oct 2.7 20:23:30 10° WSW 20:26:03 22° SSW 20:27:55 14° SSE visible
26 Oct 2.2 19:24:58 10° W 19:27:51 31° SSW 19:30:42 10° SE visible
